TimeEDT,TemperatureF,Dew PointF,Humidity,Sea Level PressureIn,VisibilityMPH,Wind Direction,Wind SpeedMPH,Gust SpeedMPH,PrecipitationIn,Events,Conditions,WindDirDegrees,DateUTC
12:53 AM,59.0,52.0,78,30.07,10.0,SSE,8.1,-,N/A,,Clear,160,2013-05-01 04:53:00
1:53 AM,59.0,52.0,78,30.07,10.0,SSE,6.9,-,N/A,,Clear,150,2013-05-01 05:53:00
2:53 AM,59.0,51.1,75,30.07,10.0,SE,6.9,-,N/A,,Clear,130,2013-05-01 06:53:00
3:53 AM,57.9,51.1,78,30.09,10.0,SE,6.9,-,N/A,,Clear,130,2013-05-01 07:53:00
4:53 AM,57.0,51.1,81,30.09,10.0,SE,6.9,-,N/A,,Clear,130,2013-05-01 08:53:00
5:53 AM,57.0,51.1,81,30.11,10.0,ESE,5.8,-,N/A,,Clear,110,2013-05-01 09:53:00
6:53 AM,57.9,51.1,78,30.14,10.0,SE,9.2,-,N/A,,Clear,130,2013-05-01 10:53:00
7:53 AM,61.0,52.0,72,30.16,10.0,SE,5.8,-,N/A,,Clear,130,2013-05-01 11:53:00
8:53 AM,66.0,54.0,65,30.18,10.0,SE,8.1,-,N/A,,Clear,140,2013-05-01 12:53:00
9:53 AM,70.0,55.0,59,30.19,10.0,SE,5.8,-,N/A,,Clear,140,2013-05-01 13:53:00
10:53 AM,73.9,55.9,53,30.19,10.0,SE,5.8,-,N/A,,Clear,140,2013-05-01 14:53:00
11:53 AM,77.0,55.9,48,30.19,10.0,SE,6.9,-,N/A,,Clear,130,2013-05-01 15:53:00
12:53 PM,79.0,55.9,45,30.19,10.0,SSE,8.1,-,N/A,,Clear,150,2013-05-01 16:53:00
1:53 PM,80.1,55.0,42,30.18,10.0,ESE,9.2,-,N/A,,Clear,110,2013-05-01 17:53:00
2:53 PM,80.1,55.9,43,30.18,10.0,East,9.2,-,N/A,,Partly Cloudy,90,2013-05-01 18:53:00
3:53 PM,81.0,55.9,42,30.17,10.0,East,9.2,17.3,N/A,,Partly Cloudy,100,2013-05-01 19:53:00
4:53 PM,82.0,55.9,41,30.17,10.0,ESE,10.4,-,N/A,,Clear,120,2013-05-01 20:53:00
6:53 PM,80.1,54.0,40,30.17,10.0,ESE,10.4,-,N/A,,Clear,120,2013-05-01 22:53:00
7:53 PM,75.9,55.0,48,30.17,10.0,ESE,6.9,-,N/A,,Clear,110,2013-05-01 23:53:00
8:53 PM,68.0,55.9,65,30.18,10.0,East,5.8,-,N/A,,Clear,100,2013-05-02 00:53:00
9:53 PM,68.0,54.0,61,30.20,10.0,East,4.6,-,N/A,,Clear,100,2013-05-02 01:53:00
10:53 PM,64.9,55.0,70,30.19,10.0,East,5.8,-,N/A,,Clear,100,2013-05-02 02:53:00
11:53 PM,66.0,54.0,65,30.19,10.0,ESE,5.8,-,N/A,,Clear,110,2013-05-02 03:53:00